| time (UTC) | temp F | wind direction | speed MPH | gust MPH | rain 1hr in | rain 24hr in | rain mn in | humidity % | barometer mb |
| 20260507014525 | 61 | 91 | 2.0 | 9.0 | 0.00 | 0.00 | 0.00 | 78 | 1019.2 |
| 20260507013040 | 62 | 86 | 2.0 | 6.0 | 0.00 | 0.00 | 0.00 | 79 | 1019.1 |
| 20260507011525 | 63 | 73 | 3.0 | 6.0 | 0.00 | 0.00 | 0.00 | 78 | 1019.1 |
| 20260507010033 | 63 | 74 | 3.0 | 8.0 | 0.00 | 0.00 | 0.00 | 77 | 1019.2 |
| 20260507004524 | 64 | 57 | 1.0 | 7.0 | 0.00 | 0.00 | 0.00 | 78 | 1019.0 |
| 20260507003023 | 64 | 69 | 3.0 | 6.0 | 0.00 | 0.00 | 0.00 | 78 | 1019.0 |
| 20260507001528 | 65 | 95 | 1.0 | 6.0 | 0.00 | 0.00 | 0.00 | 76 | 1019.1 |
| 20260507000023 | 66 | 25 | 1.0 | 5.0 | 0.00 | 0.00 | 0.00 | 75 | 1019.0 |
| 20260506234528 | 65 | 131 | 0.0 | 2.0 | 0.00 | 0.00 | 0.00 | 76 | 1019.0 |
| 20260506233018 | 65 | 150 | 1.0 | 3.0 | 0.00 | 0.00 | 0.00 | 76 | 1019.0 |
| 20260506231517 | 65 | 139 | 1.0 | 4.0 | 0.00 | 0.00 | 0.00 | 78 | 1019.1 |
| 20260506230016 | 64 | 88 | 1.0 | 7.0 | 0.00 | 0.00 | 0.00 | 77 | 1019.1 |
| 20260506224517 | 64 | 97 | 1.0 | 6.0 | 0.00 | 0.00 | 0.00 | 75 | 1019.2 |
| 20260506223015 | 65 | 111 | 3.0 | 9.0 | 0.00 | 0.00 | 0.00 | 76 | 1019.4 |
| 20260506221514 | 64 | 94 | 4.0 | 9.0 | 0.00 | 0.00 | 0.00 | 77 | 1019.4 |
| 20260506220022 | 64 | 92 | 3.0 | 9.0 | 0.00 | 0.00 | 0.00 | 77 | 1019.4 |
| 20260506214512 | 64 | 90 | 2.0 | 5.0 | 0.00 | 0.00 | 0.00 | 76 | 1019.4 |
| 20260506213011 | 64 | 80 | 5.0 | 9.0 | 0.00 | 0.00 | 0.00 | 77 | 1019.3 |
| 20260506211519 | 64 | 73 | 2.0 | 10.0 | 0.00 | 0.00 | 0.00 | 76 | 1019.6 |
| 20260506210012 | 63 | 86 | 4.0 | 8.0 | 0.00 | 0.00 | 0.00 | 77 | 1019.7 |
| 20260506204508 | 64 | 53 | 1.0 | 5.0 | 0.00 | 0.00 | 0.00 | 77 | 1019.8 |
| 20260506203008 | 64 | 338 | 2.0 | 6.0 | 0.00 | 0.00 | 0.00 | 77 | 1019.5 |
| 20260506201507 | 62 | 186 | 4.0 | 8.0 | 0.00 | 0.00 | 0.00 | 78 | 1019.6 |
| 20260506200010 | 63 | 121 | 5.0 | 9.0 | 0.00 | 0.00 | 0.00 | 78 | 1019.8 |
| 20260506194505 | 63 | 177 | 3.0 | 10.0 | 0.00 | 0.00 | 0.00 | 79 | 1019.9 |
| 20260506193004 | 62 | 136 | 4.0 | 8.0 | 0.00 | 0.00 | 0.00 | 81 | 1020.0 |
| 20260506191503 | 62 | 240 | 4.0 | 9.0 | 0.00 | 0.00 | 0.00 | 81 | 1020.0 |
| 20260506190100 | 62 | 198 | 3.0 | 7.0 | 0.00 | 0.00 | 0.00 | 82 | 1020.0 |
| 20260506184610 | 60 | 222 | 2.0 | 8.0 | 0.00 | 0.00 | 0.00 | 83 | 1019.9 |
| 20260506183054 | 59 | 207 | 2.0 | 10.0 | 0.00 | 0.00 | 0.00 | 84 | 1019.7 |
| 20260506181551 | 58 | 180 | 2.0 | 6.0 | 0.00 | 0.00 | 0.00 | 85 | 1019.7 |
| 20260506180047 | 57 | 272 | 2.0 | 9.0 | 0.00 | 0.00 | 0.00 | 85 | 1019.9 |
| 20260506174547 | 57 | 189 | 4.0 | 8.0 | 0.00 | 0.00 | 0.00 | 86 | 1020.0 |
| 20260506173046 | 56 | 155 | 3.0 | 6.0 | 0.00 | 0.00 | 0.00 | 88 | 1019.8 |
| 20260506171548 | 56 | 78 | 3.0 | 5.0 | 0.00 | 0.00 | 0.00 | 88 | 1019.6 |
| 20260506170040 | 55 | 87 | 4.0 | 8.0 | 0.00 | 0.00 | 0.00 | 89 | 1019.6 |
| 20260506164551 | 54 | 261 | 0.0 | 4.0 | 0.00 | 0.00 | 0.00 | 90 | 1019.6 |
| 20260506163041 | 54 | 243 | 3.0 | 6.0 | 0.00 | 0.00 | 0.00 | 89 | 1019.8 |
| 20260506161537 | 55 | 264 | 3.0 | 7.0 | 0.00 | 0.00 | 0.00 | 88 | 1019.6 |
| 20260506160041 | 56 | 192 | 0.0 | 4.0 | 0.00 | 0.00 | 0.00 | 88 | 1019.5 |
| 20260506154547 | 55 | 161 | 1.0 | 4.0 | 0.00 | 0.00 | 0.00 | 91 | 1019.2 |
| 20260506153036 | 53 | 128 | 3.0 | 7.0 | 0.00 | 0.00 | 0.00 | 91 | 1019.0 |
| 20260506151533 | 53 | 134 | 3.0 | 5.0 | 0.00 | 0.00 | 0.00 | 91 | 1019.1 |
| 20260506150030 | 52 | 321 | 2.0 | 5.0 | 0.00 | 0.00 | 0.00 | 91 | 1019.6 |
| 20260506144531 | 52 | 280 | 2.0 | 5.0 | 0.00 | 0.00 | 0.00 | 91 | 1019.5 |
| 20260506143033 | 52 | 314 | 4.0 | 8.0 | 0.00 | 0.00 | 0.00 | 90 | 1019.4 |
| 20260506141521 | 52 | 269 | 0.0 | 5.0 | 0.00 | 0.00 | 0.00 | 90 | 1019.1 |
| 20260506140019 | 52 | 306 | 0.0 | 3.0 | 0.00 | 0.00 | 0.00 | 91 | 1018.7 |
| 20260506134517 | 52 | 10 | 1.0 | 4.0 | 0.00 | 0.00 | 0.00 | 91 | 1018.7 |
| 20260506133016 | 52 | 302 | 1.0 | 4.0 | 0.00 | 0.00 | 0.00 | 91 | 1018.7 |
| 20260506131517 | 52 | 55 | 1.0 | 2.0 | 0.00 | 0.00 | 0.00 | 92 | 1018.6 |
| 20260506130014 | 53 | 57 | 0.0 | 3.0 | 0.00 | 0.00 | 0.00 | 91 | 1018.3 |
| 20260506124508 | 53 | 107 | 0.0 | 0.0 | 0.00 | 0.00 | 0.00 | 91 | 1018.1 |
| 20260506123007 | 53 | 355 | 1.0 | 2.0 | 0.00 | 0.00 | 0.00 | 90 | 1018.0 |
| 20260506121505 | 54 | 338 | 0.0 | 0.0 | 0.00 | 0.00 | 0.00 | 89 | 1018.1 |
| 20260506120005 | 54 | 337 | 0.0 | 0.0 | 0.00 | 0.00 | 0.00 | 89 | 1018.1 |
| 20260506114503 | 54 | 336 | 0.0 | 2.0 | 0.00 | 0.00 | 0.00 | 89 | 1017.9 |
| 20260506113110 | 54 | 344 | 0.0 | 0.0 | 0.00 | 0.00 | 0.00 | 88 | 1017.8 |
| 20260506111559 | 55 | 344 | 0.0 | 2.0 | 0.00 | 0.00 | 0.00 | 88 | 1017.7 |
| 20260506110057 | 55 | 344 | 0.0 | 1.0 | 0.00 | 0.00 | 0.00 | 89 | 1017.7 |
| 20260506104556 | 55 | 344 | 0.0 | 0.0 | 0.00 | 0.00 | 0.00 | 89 | 1017.4 |
| 20260506103054 | 55 | 344 | 0.0 | 0.0 | 0.00 | 0.00 | 0.00 | 89 | 1017.2 |
| 20260506101554 | 55 | 344 | 0.0 | 0.0 | 0.00 | 0.00 | 0.00 | 89 | 1017.2 |
| 20260506100050 | 55 | 344 | 0.0 | 2.0 | 0.00 | 0.00 | 0.00 | 89 | 1017.1 |
| 20260506094550 | 55 | 343 | 0.0 | 0.0 | 0.00 | 0.00 | 0.00 | 88 | 1016.9 |
| 20260506093051 | 56 | 342 | 0.0 | 0.0 | 0.00 | 0.00 | 0.00 | 88 | 1016.9 |
| 20260506091547 | 56 | 342 | 0.0 | 0.0 | 0.00 | 0.00 | 0.00 | 88 | 1016.8 |
| 20260506090046 | 56 | 342 | 0.0 | 2.0 | 0.00 | 0.00 | 0.00 | 87 | 1016.9 |
| 20260506084545 | 56 | 336 | 0.0 | 0.0 | 0.00 | 0.00 | 0.00 | 87 | 1016.7 |
| 20260506083046 | 56 | 336 | 0.0 | 2.0 | 0.00 | 0.00 | 0.00 | 87 | 1016.7 |
| 20260506081546 | 57 | 336 | 0.0 | 2.0 | 0.00 | 0.00 | 0.00 | 87 | 1016.7 |
| 20260506073037 | 57 | 336 | 0.0 | 2.0 | 0.00 | 0.00 | 0.00 | 84 | 1016.5 |
| 20260506071544 | 57 | 12 | 0.0 | 4.0 | 0.00 | 0.00 | 0.00 | 84 | 1016.5 |
| 20260506061534 | 57 | 306 | 0.0 | 2.0 | 0.00 | 0.00 | 0.00 | 86 | 1016.2 |
| 20260506044535 | 55 | 306 | 0.0 | 0.0 | 0.00 | 0.00 | 0.00 | 88 | 1015.8 |
| 20260506043025 | 55 | 306 | 0.0 | 1.0 | 0.00 | 0.00 | 0.00 | 87 | 1015.7 |
| 20260506041525 | 55 | 306 | 1.0 | 2.0 | 0.00 | 0.00 | 0.00 | 87 | 1015.5 |
| 20260506040024 | 56 | 306 | 1.0 | 2.0 | 0.00 | 0.00 | 0.00 | 86 | 1015.3 |
| 20260506034524 | 56 | 306 | 0.0 | 2.0 | 0.00 | 0.00 | 0.00 | 84 | 1015.1 |
| 20260506033023 | 58 | 306 | 0.0 | 1.0 | 0.00 | 0.00 | 0.00 | 82 | 1015.0 |
| 20260506031524 | 59 | 306 | 0.0 | 0.0 | 0.00 | 0.00 | 0.00 | 80 | 1014.8 |
| 20260506030022 | 59 | 306 | 0.0 | 1.0 | 0.00 | 0.00 | 0.00 | 79 | 1014.8 |
| 20260506024531 | 59 | 342 | 0.0 | 3.0 | 0.00 | 0.00 | 0.00 | 79 | 1014.7 |
| 20260506023022 | 60 | 81 | 1.0 | 2.0 | 0.00 | 0.00 | 0.00 | 78 | 1014.6 |
| 20260506021521 | 60 | 78 | 1.0 | 4.0 | 0.00 | 0.00 | 0.00 | 78 | 1014.6 |
| 20260506020020 | 61 | 95 | 2.0 | 3.0 | 0.00 | 0.00 | 0.00 | 78 | 1014.7 |